Flag for USA

Past Weather in Columbus Junction Gas Storage Area, Iowa, USA — Yesterday and Last 2 Weeks

Now
86 °F

Sunny.


Feels Like: 92 °F
Forecast: 88 / 67 °F
Wind: No wind

Location: Fair Field

Current Time: Jul 4, 2020 at 6:10:06 pm

Latest Report: Jul 4, 2020 at 5:15 pm


Visibility: 10 mi

Pressure: 30.00 "Hg

Humidity: 62%

Dew Point: 72 °F

Location of Columbus Junction Gas Storage AreaLocation

Past Weather in Columbus Junction Gas Storage Area — Graph

°F

Columbus Junction Gas Storage Area Temperature Yesterday

Maximum temperature yesterday: 86 °F (at 2:35 pm)
Minimum temperature yesterday: 68 °F (at 4:15 am)
Average temperature yesterday: 76 °F

High & Low Weather Summary for the Past Weeks

 TemperatureHumidityPressure
High90 °F (Jun 29, 3:55 pm)100% (Jun 19, 6:35 pm)30.09 "Hg (Jun 19, 6:35 pm)
Low57 °F (Jun 23, 12:55 am)35% (Jun 25, 1:55 pm)29.70 "Hg (Jun 28, 11:15 am)
Average74 °F89%29.90 "Hg
* Reported Jun 19 4:15 pm — Jul 4 4:55 pm, Columbus Junction Gas Storage Area. Weather by CustomWeather, © 2020

Note: Actual official high and low records may vary slightly from our data, if they occured in-between our weather recording intervals... More about our weather records

Columbus Junction Gas Storage Area Weather History for the Previous 24 Hours

Scroll right to see more
 ConditionsComfort  
Time TempWeatherWind HumidityBarometerVisibility
4:55 pm
Sat, Jul 4
86 °FSunny.No wind62%30.00 "HgN/A
4:35 pm86 °FPassing clouds.No wind59%30.01 "Hg10 mi
4:15 pm86 °FPassing clouds.No wind62%30.01 "Hg10 mi
3:55 pm84 °FPassing clouds.No wind66%30.02 "Hg10 mi
3:35 pm82 °FPartly sunny.5 mph74%30.02 "Hg10 mi
3:15 pm84 °FBroken clouds.No wind70%30.02 "Hg10 mi
2:55 pm86 °FScattered clouds.5 mph66%30.02 "Hg10 mi
2:35 pm86 °FSunny.3 mph62%30.03 "Hg10 mi
2:15 pm86 °FScattered clouds.5 mph62%30.04 "Hg10 mi
1:55 pm86 °FScattered clouds.5 mph66%30.04 "Hg10 mi
1:35 pm86 °FPassing clouds.6 mph62%30.05 "Hg10 mi
1:15 pm86 °FSunny.6 mph66%30.05 "Hg10 mi
12:55 pm86 °FSunny.5 mph62%30.05 "Hg10 mi
12:35 pm84 °FSunny.6 mph70%30.05 "Hg10 mi
12:15 pm84 °FSunny.8 mph70%30.05 "Hg10 mi
11:55 am84 °FSunny.5 mph66%30.05 "Hg10 mi
11:35 am84 °FSunny.6 mph66%30.05 "Hg10 mi
11:15 am82 °FSunny.8 mph74%30.05 "Hg10 mi
10:55 am82 °FSunny.10 mph74%30.05 "Hg10 mi
10:35 am82 °FSunny.7 mph79%30.06 "Hg10 mi
10:15 am81 °FSunny.6 mph84%30.06 "Hg10 mi
9:55 am81 °FSunny.6 mph79%30.06 "Hg10 mi
9:35 am77 °FSunny.6 mph89%30.06 "Hg10 mi
9:15 am77 °FPassing clouds.8 mph83%30.06 "Hg10 mi
8:35 am75 °FPassing clouds.12 mph89%30.06 "Hg10 mi
8:15 am73 °FScattered clouds.9 mph94%30.06 "Hg10 mi
7:15 am72 °FSunny.8 mph100%30.05 "Hg9 mi
6:55 am70 °FPassing clouds.6 mph100%30.04 "Hg9 mi
6:35 am70 °FPartly sunny.5 mph100%30.03 "Hg9 mi
6:15 am68 °FOvercast.6 mph100%30.03 "Hg8 mi
5:55 am70 °FOvercast.6 mph100%30.04 "Hg8 mi
5:35 am70 °FOvercast.6 mph100%30.04 "Hg7 mi
5:15 am70 °FOvercast.5 mph100%30.04 "Hg8 mi
4:55 am70 °FPassing clouds.7 mph100%30.03 "Hg7 mi
4:35 am68 °FPassing clouds.6 mph100%30.03 "Hg7 mi
4:15 am68 °FFog.7 mph100%30.03 "Hg6 mi
3:55 am70 °FClear.6 mph100%30.03 "Hg7 mi
3:35 am68 °FMild.6 mph100%30.03 "HgN/A
3:15 am70 °FFog.6 mph100%30.03 "Hg5 mi
2:55 am70 °FClear.7 mph100%30.03 "Hg8 mi
2:35 am68 °FClear.3 mph100%30.03 "Hg8 mi
2:15 am70 °FClear.3 mph100%30.02 "Hg8 mi
1:55 am70 °FClear.3 mph100%30.03 "Hg8 mi
1:35 am70 °FPassing clouds.3 mph100%30.03 "Hg10 mi
1:15 am70 °FClear.No wind100%30.03 "Hg9 mi
12:55 am70 °FClear.No wind100%30.03 "Hg8 mi
12:35 am70 °FClear.3 mph100%30.04 "Hg10 mi
12:15 am70 °FClear.5 mph100%30.03 "Hg8 mi
11:55 pm
Fri, Jul 3
70 °FClear.No wind100%30.04 "Hg10 mi
11:35 pm70 °FClear.No wind100%30.04 "Hg10 mi
11:15 pm72 °FClear.No wind100%30.04 "Hg10 mi
10:55 pm72 °FClear.5 mph100%30.04 "Hg10 mi
10:35 pm73 °FClear.6 mph100%30.04 "Hg10 mi
10:15 pm73 °FClear.6 mph100%30.03 "Hg10 mi
9:55 pm73 °FClear.5 mph100%30.03 "Hg10 mi
9:35 pm73 °FClear.No wind100%30.04 "Hg8 mi
8:55 pm77 °FClear.No wind94%30.03 "Hg10 mi
8:15 pm79 °FSunny.No wind89%30.03 "Hg10 mi
7:55 pm81 °FSunny.No wind84%30.03 "Hg10 mi
7:35 pm81 °FSunny.5 mph84%30.03 "Hg10 mi
6:55 pm82 °FSunny.5 mph70%30.02 "Hg10 mi
6:35 pm82 °FSunny.5 mph70%30.03 "Hg10 mi
6:15 pm84 °FSunny.7 mph62%30.03 "Hg10 mi
Weather by CustomWeather, © 2020

See weather overview